Tracking 29892 objects as of 21-Nov-2024
HD Live streaming from Space Station
objects crossing your sky now

STARLINK-3977

Track STARLINK-3977 now!
10-day predictions
STARLINK-3977 is classified as:


NORAD ID: 52640
Int'l Code: 2022-052AU
Perigee: 545.9 km
Apogee: 547.8 km
Inclination: 53.2 °
Period: 95.4 minutes
Semi major axis: 6917 km
RCS: Unknown
Launch date: May 14, 2022
Source: United States (US)
Launch site: AIR FORCE EASTERN TEST RANGE (AFETR)
Your satellite tracking list
Your tracking list is empty




NASA's NSSDC Master Catalog

Two Line Element Set (TLE):
1 52640U 22052AU  24325.13953621  .00000633  00000-0  57863-4 0  9999
2 52640  53.2170 229.4841 0001329  87.5346 272.5798 15.08849353139486
Source of the keplerian elements: AFSPC